Flag for U.S.A. Weather past 2 weeks in Bloomington, Indiana, U.S.A.

Now
61 °F

Sunny.


Feels Like: 61 °F
Forecast: 38 / 60 °F
Wind: 8 mph from Northwest

Location: Monroe County Airport

Current Time: Mar 30, 2015 at 4:50:22 PM

Latest Report: Mar 30, 2015 at 3:53 PM


Visibility: 10 mi

Pressure: 30.09 "Hg

Humidity: 29%

Dew point: 28 °F

Location of BloomingtonLocation

Historic Weather in Bloomington — Graph

°F

Bloomington temperature yesterday

Maximum temperature yesterday: 51 °F (at 3:53 PM)
Minimum temperature yesterday: 24 °F (at 1:53 AM)
Average temperature yesterday: 38 °F

Past Weeks' High & Low Weather Summary

 TemperatureHumidityPressure
High72 °F (Mar 16, 3:53 PM)97% (Mar 21, 6:53 AM)30.36 "Hg (Mar 21, 6:53 AM)
Low18 °F (Mar 28, 5:53 AM)20% (Mar 18, 4:53 PM)29.86 "Hg (Mar 17, 3:53 AM)
Average44 °F62%30.12 "Hg
* Reported Mar 15 3:53 PM — Mar 30 3:53 PM, Bloomington, Weather by CustomWeather, © 2015

Note: Actual official high and low records may vary slightly from our data, if they occured in-between our weather recording intervals... More about our weather records

Advertising

Bloomington weather history for previous 24 hours

 ConditionsComfort  
Time TempWeatherWind HumidityBarometerVisibility
3:53 PM
Mon, Mar 30
61 °FSunny.8 mph29%30.09 "Hg10 mi
2:53 PM59 °FSunny.14 mph32%30.09 "Hg10 mi
1:53 PM58 °FSunny.7 mph33%30.13 "Hg10 mi
12:53 PM56 °FSunny.7 mph39%30.14 "Hg10 mi
11:53 AM53 °FSunny.8 mph41%30.15 "Hg10 mi
10:53 AM49 °FSunny.8 mph55%30.15 "Hg10 mi
9:53 AM45 °FSunny.6 mph65%30.13 "Hg10 mi
8:53 AM43 °FSunny.8 mph76%30.12 "Hg10 mi
7:53 AM39 °FClear.6 mph89%30.09 "Hg10 mi
6:53 AM39 °FClear.5 mph89%30.04 "Hg10 mi
5:53 AM42 °FClear.3 mph89%30.01 "Hg10 mi
4:53 AM43 °FClear.7 mph86%30.01 "Hg10 mi
3:53 AM45 °FClear.6 mph82%30.02 "Hg10 mi
2:53 AM46 °FClear.7 mph79%30.02 "Hg10 mi
1:53 AM48 °FPassing clouds.9 mph80%30.02 "Hg10 mi
12:53 AM49 °FOvercast.14 mph77%30.01 "Hg10 mi
11:53 PM
Sun, Mar 29
49 °FMostly cloudy.15 mph77%29.99 "Hg10 mi
10:53 PM47 °FClear.10 mph80%29.99 "Hg10 mi
9:53 PM46 °FOvercast.7 mph77%29.99 "Hg10 mi
8:53 PM44 °FLight rain. Overcast.5 mph85%29.97 "Hg10 mi
7:53 PM46 °FRain. More clouds than sun.6 mph71%29.95 "Hg6 mi
6:53 PM50 °FLight rain. Mostly cloudy.9 mph46%30.00 "Hg10 mi
5:53 PM50 °FLight rain. Overcast.13 mph39%29.97 "Hg10 mi
4:53 PM51 °FOvercast.17 mph31%29.96 "Hg10 mi
Weather by CustomWeather, © 2015

See weather overviewHow to use our weather pages